Year,Month,Day,Hour,Minute,Value (Times are PST for temperature in C)
2015,07,19,00,00,20.90
2015,07,19,00,01,20.90
2015,07,19,00,02,21.00
2015,07,19,00,03,21.00
2015,07,19,00,04,21.00
2015,07,19,00,05,21.00
2015,07,19,00,06,21.00
2015,07,19,00,07,21.10
2015,07,19,00,08,21.10
2015,07,19,00,09,21.10
2015,07,19,00,10,21.10
2015,07,19,00,11,21.10
2015,07,19,00,12,21.10
2015,07,19,00,13,21.10
2015,07,19,00,14,21.10
2015,07,19,00,15,21.10
2015,07,19,00,16,21.10
2015,07,19,00,17,21.10
2015,07,19,00,18,21.20
2015,07,19,00,19,21.20
2015,07,19,00,20,21.20
2015,07,19,00,21,21.20
2015,07,19,00,22,21.20
2015,07,19,00,23,21.20
2015,07,19,00,24,21.30
2015,07,19,00,25,21.30
2015,07,19,00,26,21.30
2015,07,19,00,27,21.30
2015,07,19,00,28,21.30
2015,07,19,00,29,21.40
2015,07,19,00,30,21.40
2015,07,19,00,31,21.40
2015,07,19,00,32,21.40
2015,07,19,00,33,21.40
2015,07,19,00,34,21.40
2015,07,19,00,35,21.40
2015,07,19,00,36,21.40
2015,07,19,00,37,21.50
2015,07,19,00,38,21.50
2015,07,19,00,39,21.50
2015,07,19,00,40,21.50
2015,07,19,00,41,21.50
2015,07,19,00,42,21.50
2015,07,19,00,43,21.50
2015,07,19,00,44,21.40
2015,07,19,00,45,21.40
2015,07,19,00,46,21.40
2015,07,19,00,47,21.40
2015,07,19,00,48,21.40
2015,07,19,00,49,21.40
2015,07,19,00,50,21.40
2015,07,19,00,51,21.40
2015,07,19,00,52,21.40
2015,07,19,00,53,21.40
2015,07,19,00,54,21.40
2015,07,19,00,55,21.40
2015,07,19,00,56,21.50
2015,07,19,00,57,21.50
2015,07,19,00,58,21.40
2015,07,19,00,59,21.40
2015,07,19,01,00,21.40
2015,07,19,01,01,21.40
2015,07,19,01,02,21.40
2015,07,19,01,03,21.30
2015,07,19,01,04,21.30
2015,07,19,01,05,21.30
2015,07,19,01,06,21.30
2015,07,19,01,07,21.30
2015,07,19,01,08,21.30
2015,07,19,01,09,21.30
2015,07,19,01,10,21.20
2015,07,19,01,11,21.20
2015,07,19,01,12,21.20
2015,07,19,01,13,21.30
2015,07,19,01,14,21.30
2015,07,19,01,15,21.30
2015,07,19,01,16,21.30
2015,07,19,01,17,21.30
2015,07,19,01,18,21.30
2015,07,19,01,19,21.20
2015,07,19,01,20,21.20
2015,07,19,01,21,21.20
2015,07,19,01,22,21.20
2015,07,19,01,23,21.20
2015,07,19,01,24,21.20
2015,07,19,01,25,21.20
2015,07,19,01,26,21.20
2015,07,19,01,27,21.20
2015,07,19,01,28,21.10
2015,07,19,01,29,21.10
2015,07,19,01,30,21.00
2015,07,19,01,31,21.00
2015,07,19,01,32,21.00
2015,07,19,01,33,20.90
2015,07,19,01,34,20.90
2015,07,19,01,35,20.90
2015,07,19,01,36,20.80
2015,07,19,01,37,20.80
2015,07,19,01,38,20.80
2015,07,19,01,39,20.80
2015,07,19,01,40,20.80
2015,07,19,01,41,20.70
2015,07,19,01,42,20.70
2015,07,19,01,43,20.70
2015,07,19,01,44,20.70
2015,07,19,01,45,20.60
2015,07,19,01,46,20.50
2015,07,19,01,47,20.50
2015,07,19,01,48,20.40
2015,07,19,01,49,20.40
2015,07,19,01,50,20.30
2015,07,19,01,51,20.30
2015,07,19,01,52,20.20
2015,07,19,01,53,20.20
2015,07,19,01,54,20.20
2015,07,19,01,55,20.20
2015,07,19,01,56,20.10
2015,07,19,01,57,20.10
2015,07,19,01,58,20.10
2015,07,19,01,59,20.10
2015,07,19,02,00,20.10
2015,07,19,02,01,20.00
2015,07,19,02,02,20.00
2015,07,19,02,03,20.00
2015,07,19,02,04,20.00
2015,07,19,02,05,19.90
2015,07,19,02,06,19.90
2015,07,19,02,07,19.90
2015,07,19,02,08,19.90
2015,07,19,02,09,19.80
2015,07,19,02,10,19.80
2015,07,19,02,11,19.80
2015,07,19,02,12,19.80
2015,07,19,02,13,19.80
2015,07,19,02,14,19.80
2015,07,19,02,15,19.80
2015,07,19,02,16,19.80
2015,07,19,02,17,19.80
2015,07,19,02,18,19.80
2015,07,19,02,19,19.80
2015,07,19,02,20,19.70
2015,07,19,02,21,19.70
2015,07,19,02,22,19.70
2015,07,19,02,23,19.70
2015,07,19,02,24,19.70
2015,07,19,02,25,19.60
2015,07,19,02,26,19.60
2015,07,19,02,27,19.60
2015,07,19,02,28,19.50
2015,07,19,02,29,19.40
2015,07,19,02,30,19.40
2015,07,19,02,31,19.30
2015,07,19,02,32,19.30
2015,07,19,02,33,19.30
2015,07,19,02,34,19.20
2015,07,19,02,35,19.20
2015,07,19,02,36,19.20
2015,07,19,02,37,19.10
2015,07,19,02,38,19.10
2015,07,19,02,39,19.10
2015,07,19,02,40,19.10
2015,07,19,02,41,19.00
2015,07,19,02,42,19.00
2015,07,19,02,43,19.00
2015,07,19,02,44,19.00
2015,07,19,02,45,19.00
2015,07,19,02,46,18.90
2015,07,19,02,47,18.90
2015,07,19,02,48,18.90
2015,07,19,02,49,18.90
2015,07,19,02,50,18.90
2015,07,19,02,51,18.90
2015,07,19,02,52,18.90
2015,07,19,02,53,18.90
2015,07,19,02,54,18.90
2015,07,19,02,55,18.90
2015,07,19,02,56,18.90
2015,07,19,02,57,18.80
2015,07,19,02,58,18.80
2015,07,19,02,59,18.80
2015,07,19,03,00,18.80
2015,07,19,03,01,18.80
2015,07,19,03,02,18.80
2015,07,19,03,03,18.80
2015,07,19,03,04,18.80
2015,07,19,03,05,18.80
2015,07,19,03,06,18.80
2015,07,19,03,07,18.80
2015,07,19,03,08,18.80
2015,07,19,03,09,18.80
2015,07,19,03,10,18.80
2015,07,19,03,11,18.80
2015,07,19,03,12,18.80
2015,07,19,03,13,18.80
2015,07,19,03,14,18.80
2015,07,19,03,15,18.80
2015,07,19,03,16,18.70
2015,07,19,03,17,18.80
2015,07,19,03,18,18.80
2015,07,19,03,19,18.70
2015,07,19,03,20,18.80
2015,07,19,03,21,18.80
2015,07,19,03,22,18.80
2015,07,19,03,23,18.80
2015,07,19,03,24,18.70
2015,07,19,03,25,18.80
2015,07,19,03,26,18.80
2015,07,19,03,27,18.70
2015,07,19,03,28,18.70
2015,07,19,03,29,18.70
2015,07,19,03,30,18.70
2015,07,19,03,31,18.70
2015,07,19,03,32,18.70
2015,07,19,03,33,18.70
2015,07,19,03,34,18.70
2015,07,19,03,35,18.70
2015,07,19,03,36,18.70
2015,07,19,03,37,18.70
2015,07,19,03,38,18.70
2015,07,19,03,39,18.70
2015,07,19,03,40,18.70
2015,07,19,03,41,18.60
2015,07,19,03,42,18.60
2015,07,19,03,43,18.50
2015,07,19,03,44,18.40
2015,07,19,03,45,18.40
2015,07,19,03,46,18.30
2015,07,19,03,47,18.30
2015,07,19,03,48,18.20
2015,07,19,03,49,18.10
2015,07,19,03,50,18.10
2015,07,19,03,51,18.00
2015,07,19,03,52,17.90
2015,07,19,03,53,17.90
2015,07,19,03,54,17.80
2015,07,19,03,55,17.80
2015,07,19,03,56,17.80
2015,07,19,03,57,17.70
2015,07,19,03,58,17.70
2015,07,19,03,59,17.70
2015,07,19,04,00,17.70
2015,07,19,04,01,17.60
2015,07,19,04,02,17.60
2015,07,19,04,03,17.60
2015,07,19,04,04,17.60
2015,07,19,04,05,17.60
2015,07,19,04,06,17.60
2015,07,19,04,07,17.60
2015,07,19,04,08,17.60
2015,07,19,04,09,17.60
2015,07,19,04,10,17.60
2015,07,19,04,11,17.60
2015,07,19,04,12,17.70
2015,07,19,04,13,17.70
2015,07,19,04,14,17.70
2015,07,19,04,15,17.70
2015,07,19,04,16,17.70
2015,07,19,04,17,17.70
2015,07,19,04,18,17.70
2015,07,19,04,19,17.80
2015,07,19,04,20,17.80
2015,07,19,04,21,17.80
2015,07,19,04,22,17.80
2015,07,19,04,23,17.80
2015,07,19,04,24,17.80
2015,07,19,04,25,17.90
2015,07,19,04,26,17.90
2015,07,19,04,27,18.00
2015,07,19,04,28,18.10
2015,07,19,04,29,18.10
2015,07,19,04,30,18.10
2015,07,19,04,31,18.20
2015,07,19,04,32,18.20
2015,07,19,04,33,18.20
2015,07,19,04,34,18.20
2015,07,19,04,35,18.20
2015,07,19,04,36,18.20
2015,07,19,04,37,18.20
2015,07,19,04,38,18.20
2015,07,19,04,39,18.20
2015,07,19,04,40,18.30
2015,07,19,04,41,18.30
2015,07,19,04,42,18.30
2015,07,19,04,43,18.30
2015,07,19,04,44,18.30
2015,07,19,04,45,18.30
2015,07,19,04,46,18.30
2015,07,19,04,47,18.40
2015,07,19,04,48,18.40
2015,07,19,04,49,18.40
2015,07,19,04,50,18.50
2015,07,19,04,51,18.60
2015,07,19,04,52,18.60
2015,07,19,04,53,18.70
2015,07,19,04,54,18.80
2015,07,19,04,55,18.80
2015,07,19,04,56,18.80
2015,07,19,04,57,18.90
2015,07,19,04,58,18.90
2015,07,19,04,59,19.00
2015,07,19,05,00,19.00
2015,07,19,05,01,19.10
2015,07,19,05,02,19.10
2015,07,19,05,03,19.10
2015,07,19,05,04,19.20
2015,07,19,05,05,19.20
2015,07,19,05,06,19.20
2015,07,19,05,07,19.20
2015,07,19,05,08,19.20
2015,07,19,05,09,19.20
2015,07,19,05,10,19.20
2015,07,19,05,11,19.20
2015,07,19,05,12,19.20
2015,07,19,05,13,19.20
2015,07,19,05,14,19.20
2015,07,19,05,15,19.20
2015,07,19,05,16,19.10
2015,07,19,05,17,19.10
2015,07,19,05,18,19.00
2015,07,19,05,19,19.00
2015,07,19,05,20,18.90
2015,07,19,05,21,18.90
2015,07,19,05,22,18.90
2015,07,19,05,23,18.90
2015,07,19,05,24,18.80
2015,07,19,05,25,18.80
2015,07,19,05,26,18.80
2015,07,19,05,27,18.80
2015,07,19,05,28,18.80
2015,07,19,05,29,18.70
2015,07,19,05,30,18.70
2015,07,19,05,31,18.70
2015,07,19,05,32,18.70
2015,07,19,05,33,18.70
2015,07,19,05,34,18.70
2015,07,19,05,35,18.70
2015,07,19,05,36,18.70
2015,07,19,05,37,18.70
2015,07,19,05,38,18.70
2015,07,19,05,39,18.70
2015,07,19,05,40,18.70
2015,07,19,05,41,18.70
2015,07,19,05,42,18.70
2015,07,19,05,43,18.70
2015,07,19,05,44,18.80
2015,07,19,05,45,18.80
2015,07,19,05,46,18.80
2015,07,19,05,47,18.80
2015,07,19,05,48,18.90
2015,07,19,05,49,18.90
2015,07,19,05,50,18.90
2015,07,19,05,51,18.90
2015,07,19,05,52,18.90
2015,07,19,05,53,18.90
2015,07,19,05,54,18.90
2015,07,19,05,55,19.00
2015,07,19,05,56,19.00
2015,07,19,05,57,19.00
2015,07,19,05,58,19.00
2015,07,19,05,59,19.10
2015,07,19,06,00,19.10
2015,07,19,06,01,19.10
2015,07,19,06,02,19.10
2015,07,19,06,03,19.10
2015,07,19,06,04,19.10
2015,07,19,06,05,19.10
2015,07,19,06,06,19.10
2015,07,19,06,07,19.10
2015,07,19,06,08,19.10
2015,07,19,06,09,19.10
2015,07,19,06,10,19.20
2015,07,19,06,11,19.20
2015,07,19,06,12,19.20
2015,07,19,06,13,19.20
2015,07,19,06,14,19.20
2015,07,19,06,15,19.30
2015,07,19,06,16,19.30
2015,07,19,06,17,19.30
2015,07,19,06,18,19.40
2015,07,19,06,19,19.50
2015,07,19,06,20,19.50
2015,07,19,06,21,19.60
2015,07,19,06,22,19.70
2015,07,19,06,23,19.70
2015,07,19,06,24,19.80
2015,07,19,06,25,19.80
2015,07,19,06,26,19.90
2015,07,19,06,27,19.90
2015,07,19,06,28,20.00
2015,07,19,06,29,20.00
2015,07,19,06,30,20.10
2015,07,19,06,31,20.10
2015,07,19,06,32,20.10
2015,07,19,06,33,20.10
2015,07,19,06,34,20.10
2015,07,19,06,35,20.10
2015,07,19,06,36,20.10
2015,07,19,06,37,20.10
2015,07,19,06,38,20.10
2015,07,19,06,39,20.10
2015,07,19,06,40,20.10
2015,07,19,06,41,20.10
2015,07,19,06,42,20.10
2015,07,19,06,43,20.10
2015,07,19,06,44,20.10
2015,07,19,06,45,20.10
2015,07,19,06,46,20.00
2015,07,19,06,47,20.00
2015,07,19,06,48,20.00
2015,07,19,06,49,20.00
2015,07,19,06,50,20.00
2015,07,19,06,51,20.00
2015,07,19,06,52,20.00
2015,07,19,06,53,20.00
2015,07,19,06,54,20.10
2015,07,19,06,55,20.10
2015,07,19,06,56,20.10
2015,07,19,06,57,20.20
2015,07,19,06,58,20.20
2015,07,19,06,59,20.20
2015,07,19,07,00,20.30
2015,07,19,07,01,20.30
2015,07,19,07,02,20.30
2015,07,19,07,03,20.30
2015,07,19,07,04,20.30
2015,07,19,07,05,20.30
2015,07,19,07,06,20.20
2015,07,19,07,07,20.20
2015,07,19,07,08,20.20
2015,07,19,07,09,20.10
2015,07,19,07,10,20.10
2015,07,19,07,11,20.00
2015,07,19,07,12,20.00
2015,07,19,07,13,19.90
2015,07,19,07,14,19.90
2015,07,19,07,15,19.80
2015,07,19,07,16,19.80
2015,07,19,07,17,19.70
2015,07,19,07,18,19.70
2015,07,19,07,19,19.60
2015,07,19,07,20,19.60
2015,07,19,07,21,19.60
2015,07,19,07,22,19.50
2015,07,19,07,23,19.40
2015,07,19,07,24,19.40
2015,07,19,07,25,19.40
2015,07,19,07,26,19.40
2015,07,19,07,27,19.30
2015,07,19,07,28,19.30
2015,07,19,07,29,19.30
2015,07,19,07,30,19.30
2015,07,19,07,31,19.40
2015,07,19,07,32,19.40
2015,07,19,07,33,19.40
2015,07,19,07,34,19.40
2015,07,19,07,35,19.40
2015,07,19,07,36,19.50
2015,07,19,07,37,19.50
2015,07,19,07,38,19.50
2015,07,19,07,39,19.60
2015,07,19,07,40,19.60
2015,07,19,07,41,19.60
2015,07,19,07,42,19.70
2015,07,19,07,43,19.70
2015,07,19,07,44,19.70
2015,07,19,07,45,19.70
2015,07,19,07,46,19.70
2015,07,19,07,47,19.80
2015,07,19,07,48,19.80
2015,07,19,07,49,19.80
2015,07,19,07,50,19.90
2015,07,19,07,51,19.90
2015,07,19,07,52,20.00
2015,07,19,07,53,20.10
2015,07,19,07,54,20.20
2015,07,19,07,55,20.30
2015,07,19,07,56,20.30
2015,07,19,07,57,20.40
2015,07,19,07,58,20.50
2015,07,19,07,59,20.60
2015,07,19,08,00,20.70
2015,07,19,08,01,20.80
2015,07,19,08,02,20.80
2015,07,19,08,03,20.90
2015,07,19,08,04,21.00
2015,07,19,08,05,21.10
2015,07,19,08,06,21.10
2015,07,19,08,07,21.20
2015,07,19,08,08,21.30
2015,07,19,08,09,21.30
2015,07,19,08,10,21.40
2015,07,19,08,11,21.50
2015,07,19,08,12,21.50
2015,07,19,08,13,21.60
2015,07,19,08,14,21.60
2015,07,19,08,15,21.70
2015,07,19,08,16,21.70
2015,07,19,08,17,21.70
2015,07,19,08,18,21.70
2015,07,19,08,19,21.60
2015,07,19,08,20,21.60
2015,07,19,08,21,21.60
2015,07,19,08,22,21.60
2015,07,19,08,23,21.60
2015,07,19,08,24,21.50
2015,07,19,08,25,21.50
2015,07,19,08,26,21.50
2015,07,19,08,27,21.60
2015,07,19,08,28,21.60
2015,07,19,08,29,21.60
2015,07,19,08,30,21.70
2015,07,19,08,31,21.70
2015,07,19,08,32,21.70
2015,07,19,08,33,21.80
2015,07,19,08,34,21.80
2015,07,19,08,35,21.80
2015,07,19,08,36,21.70
2015,07,19,08,37,21.70
2015,07,19,08,38,21.70
2015,07,19,08,39,21.70
2015,07,19,08,40,21.70
2015,07,19,08,41,21.70
2015,07,19,08,42,21.80
2015,07,19,08,43,21.80
2015,07,19,08,44,21.80
2015,07,19,08,45,21.80
2015,07,19,08,46,21.90
2015,07,19,08,47,21.90
2015,07,19,08,48,21.90
2015,07,19,08,49,21.90
2015,07,19,08,50,22.00
2015,07,19,08,51,22.00
2015,07,19,08,52,22.10
2015,07,19,08,53,22.10
2015,07,19,08,54,22.10
2015,07,19,08,55,22.20
2015,07,19,08,56,22.20
2015,07,19,08,57,22.20
2015,07,19,08,58,22.20
2015,07,19,08,59,22.20
2015,07,19,09,00,22.10
2015,07,19,09,01,22.10
2015,07,19,09,02,22.10
2015,07,19,09,03,22.10
2015,07,19,09,04,22.20
2015,07,19,09,05,22.20
2015,07,19,09,06,22.30
2015,07,19,09,07,22.30
2015,07,19,09,08,22.40
2015,07,19,09,09,22.50
2015,07,19,09,10,22.60
2015,07,19,09,11,22.60
2015,07,19,09,12,22.70
2015,07,19,09,13,22.70
2015,07,19,09,14,22.70
2015,07,19,09,15,22.60
2015,07,19,09,16,22.60
2015,07,19,09,17,22.60
2015,07,19,09,18,22.50
2015,07,19,09,19,22.50
2015,07,19,09,20,22.60
2015,07,19,09,21,22.60
2015,07,19,09,22,22.50
2015,07,19,09,23,22.50
2015,07,19,09,24,22.40
2015,07,19,09,25,22.40
2015,07,19,09,26,22.40
2015,07,19,09,27,22.40
2015,07,19,09,28,22.50
2015,07,19,09,29,22.50
2015,07,19,09,30,22.50
2015,07,19,09,31,22.50
2015,07,19,09,32,22.40
2015,07,19,09,33,22.40
2015,07,19,09,34,22.40
2015,07,19,09,35,22.30
2015,07,19,09,36,22.40
2015,07,19,09,37,22.40
2015,07,19,09,38,22.40
2015,07,19,09,39,22.50
2015,07,19,09,40,22.50
2015,07,19,09,41,22.60
2015,07,19,09,42,22.60
2015,07,19,09,43,22.60
2015,07,19,09,44,22.60
2015,07,19,09,45,22.60
2015,07,19,09,46,22.70
2015,07,19,09,47,22.70
2015,07,19,09,48,22.80
2015,07,19,09,49,22.80
2015,07,19,09,50,22.80
2015,07,19,09,51,22.80
2015,07,19,09,52,22.90
2015,07,19,09,53,22.90
2015,07,19,09,54,22.90
2015,07,19,09,55,23.00
2015,07,19,09,56,23.00
2015,07,19,09,57,23.10
2015,07,19,09,58,23.10
2015,07,19,09,59,23.10
2015,07,19,10,00,23.20
2015,07,19,10,01,23.20
2015,07,19,10,02,23.20
2015,07,19,10,03,23.30
2015,07,19,10,04,23.30
2015,07,19,10,05,23.30
2015,07,19,10,06,23.40
2015,07,19,10,07,23.50
2015,07,19,10,08,23.50
2015,07,19,10,09,23.50
2015,07,19,10,10,23.60
2015,07,19,10,11,23.60
2015,07,19,10,12,23.60
2015,07,19,10,13,23.60
2015,07,19,10,14,23.60
2015,07,19,10,15,23.60
2015,07,19,10,16,23.50
2015,07,19,10,17,23.50
2015,07,19,10,18,23.40
2015,07,19,10,19,23.40
2015,07,19,10,20,23.40
2015,07,19,10,21,23.30
2015,07,19,10,22,23.30
2015,07,19,10,23,23.30
2015,07,19,10,24,23.30
2015,07,19,10,25,23.40
2015,07,19,10,26,23.40
2015,07,19,10,27,23.50
2015,07,19,10,28,23.50
2015,07,19,10,29,23.50
2015,07,19,10,30,23.60
2015,07,19,10,31,23.60
2015,07,19,10,32,23.60
2015,07,19,10,33,23.60
2015,07,19,10,34,23.60
2015,07,19,10,35,23.70
2015,07,19,10,36,23.70
2015,07,19,10,37,23.80
2015,07,19,10,38,23.80
2015,07,19,10,39,23.80
2015,07,19,10,40,23.90
2015,07,19,10,41,23.90
2015,07,19,10,42,24.00
2015,07,19,10,43,24.00
2015,07,19,10,44,24.10
2015,07,19,10,45,24.10
2015,07,19,10,46,24.20
2015,07,19,10,47,24.20
2015,07,19,10,48,24.30
2015,07,19,10,49,24.30
2015,07,19,10,50,24.30
2015,07,19,10,51,24.40
2015,07,19,10,52,24.40
2015,07,19,10,53,24.40
2015,07,19,10,54,24.40
2015,07,19,10,55,24.40
2015,07,19,10,56,24.40
2015,07,19,10,57,24.40
2015,07,19,10,58,24.40
2015,07,19,10,59,24.40
2015,07,19,11,00,24.40
2015,07,19,11,01,24.40
2015,07,19,11,02,24.40
2015,07,19,11,03,24.40
2015,07,19,11,04,24.50
2015,07,19,11,05,24.50
2015,07,19,11,06,24.50
2015,07,19,11,07,24.60
2015,07,19,11,08,24.60
2015,07,19,11,09,24.50
2015,07,19,11,10,24.50
2015,07,19,11,11,24.50
2015,07,19,11,12,24.40
2015,07,19,11,13,24.40
2015,07,19,11,14,24.30
2015,07,19,11,15,24.30
2015,07,19,11,16,24.30
2015,07,19,11,17,24.30
2015,07,19,11,18,24.40
2015,07,19,11,19,24.40
2015,07,19,11,20,24.50
2015,07,19,11,21,24.60
2015,07,19,11,22,24.60
2015,07,19,11,23,24.60
2015,07,19,11,24,24.60
2015,07,19,11,25,24.60
2015,07,19,11,26,24.60
2015,07,19,11,27,24.60
2015,07,19,11,28,24.60
2015,07,19,11,29,24.70
2015,07,19,11,30,24.70
2015,07,19,11,31,24.70
2015,07,19,11,32,24.70
2015,07,19,11,33,24.70
2015,07,19,11,34,24.80
2015,07,19,11,35,24.80
2015,07,19,11,36,24.80
2015,07,19,11,37,24.80
2015,07,19,11,38,24.90
2015,07,19,11,39,24.90
2015,07,19,11,40,25.00
2015,07,19,11,41,25.10
2015,07,19,11,42,25.10
2015,07,19,11,43,25.10
2015,07,19,11,44,25.20
2015,07,19,11,45,25.20
2015,07,19,11,46,25.20
2015,07,19,11,47,25.30
2015,07,19,11,48,25.40
2015,07,19,11,49,25.50
2015,07,19,11,50,25.60
2015,07,19,11,51,25.50
2015,07,19,11,52,25.50
2015,07,19,11,53,25.50
2015,07,19,11,54,25.50
2015,07,19,11,55,25.50
2015,07,19,11,56,25.50
2015,07,19,11,57,25.50
2015,07,19,11,58,25.50
2015,07,19,11,59,25.50
2015,07,19,12,00,25.60
2015,07,19,12,01,25.60
2015,07,19,12,02,25.60
2015,07,19,12,03,25.60
2015,07,19,12,04,25.70
2015,07,19,12,05,25.70
2015,07,19,12,06,25.70
2015,07,19,12,07,25.80
2015,07,19,12,08,25.80
2015,07,19,12,09,25.80
2015,07,19,12,10,25.80
2015,07,19,12,11,25.80
2015,07,19,12,12,25.90
2015,07,19,12,13,25.90
2015,07,19,12,14,25.90
2015,07,19,12,15,25.80
2015,07,19,12,16,25.80
2015,07,19,12,17,25.70
2015,07,19,12,18,25.70
2015,07,19,12,19,25.70
2015,07,19,12,20,25.70
2015,07,19,12,21,25.70
2015,07,19,12,22,25.70
2015,07,19,12,23,25.80
2015,07,19,12,24,25.90
2015,07,19,12,25,25.90
2015,07,19,12,26,26.00
2015,07,19,12,27,26.00
2015,07,19,12,28,26.00
2015,07,19,12,29,26.00
2015,07,19,12,30,26.00
2015,07,19,12,31,26.00
2015,07,19,12,32,26.00
2015,07,19,12,33,25.90
2015,07,19,12,34,25.90
2015,07,19,12,35,25.90
2015,07,19,12,36,25.90
2015,07,19,12,37,25.90
2015,07,19,12,38,25.90
2015,07,19,12,39,25.90
2015,07,19,12,40,25.90
2015,07,19,12,41,25.90
2015,07,19,12,42,25.90
2015,07,19,12,43,25.90
2015,07,19,12,44,25.90
2015,07,19,12,45,25.90
2015,07,19,12,46,25.90
2015,07,19,12,47,26.00
2015,07,19,12,48,26.00
2015,07,19,12,49,26.10
2015,07,19,12,50,26.10
2015,07,19,12,51,26.10
2015,07,19,12,52,26.10
2015,07,19,12,53,26.20
2015,07,19,12,54,26.20
2015,07,19,12,55,26.30
2015,07,19,12,56,26.30
2015,07,19,12,57,26.30
2015,07,19,12,58,26.40
2015,07,19,12,59,26.40
2015,07,19,13,00,26.40
2015,07,19,13,01,26.40
2015,07,19,13,02,26.50
2015,07,19,13,03,26.50
2015,07,19,13,04,26.60
2015,07,19,13,05,26.60
2015,07,19,13,06,26.70
2015,07,19,13,07,26.80
2015,07,19,13,08,26.80
2015,07,19,13,09,26.90
2015,07,19,13,10,26.90
2015,07,19,13,11,26.90
2015,07,19,13,12,26.90
2015,07,19,13,13,26.90
2015,07,19,13,14,26.90
2015,07,19,13,15,26.80
2015,07,19,13,16,26.80
2015,07,19,13,17,26.80
2015,07,19,13,18,26.80
2015,07,19,13,19,26.90
2015,07,19,13,20,26.90
2015,07,19,13,21,27.00
2015,07,19,13,22,27.00
2015,07,19,13,23,27.10
2015,07,19,13,24,27.10
2015,07,19,13,25,27.10
2015,07,19,13,26,27.00
2015,07,19,13,27,27.10
2015,07,19,13,28,27.10
2015,07,19,13,29,27.10
2015,07,19,13,30,27.20
2015,07,19,13,31,27.20
2015,07,19,13,32,27.30
2015,07,19,13,33,27.40
2015,07,19,13,34,27.40
2015,07,19,13,35,27.50
2015,07,19,13,36,27.50
2015,07,19,13,37,27.60
2015,07,19,13,38,27.70
2015,07,19,13,39,27.70
2015,07,19,13,40,27.70
2015,07,19,13,41,27.80
2015,07,19,13,42,27.90
2015,07,19,13,43,28.00
2015,07,19,13,44,28.10
2015,07,19,13,45,28.10
2015,07,19,13,46,28.10
2015,07,19,13,47,28.10
2015,07,19,13,48,28.10
2015,07,19,13,49,28.10
2015,07,19,13,50,28.10
2015,07,19,13,51,28.10
2015,07,19,13,52,28.20
2015,07,19,13,53,28.30
2015,07,19,13,54,28.40
2015,07,19,13,55,28.50
2015,07,19,13,56,28.60
2015,07,19,13,57,28.60
2015,07,19,13,58,28.60
2015,07,19,13,59,28.70
2015,07,19,14,00,28.70
2015,07,19,14,01,28.80
2015,07,19,14,02,28.70
2015,07,19,14,03,28.70
2015,07,19,14,04,28.70
2015,07,19,14,05,28.70
2015,07,19,14,06,28.60
2015,07,19,14,07,28.60
2015,07,19,14,08,28.60
2015,07,19,14,09,28.60
2015,07,19,14,10,28.60
2015,07,19,14,11,28.70
2015,07,19,14,12,28.70
2015,07,19,14,13,28.60
2015,07,19,14,14,28.60
2015,07,19,14,15,28.50
2015,07,19,14,16,28.50
2015,07,19,14,17,28.40
2015,07,19,14,18,28.40
2015,07,19,14,19,28.40
2015,07,19,14,20,28.40
2015,07,19,14,21,28.30
2015,07,19,14,22,28.20
2015,07,19,14,23,28.20
2015,07,19,14,24,28.10
2015,07,19,14,25,28.00
2015,07,19,14,26,27.90
2015,07,19,14,27,27.90
2015,07,19,14,28,27.80
2015,07,19,14,29,27.80
2015,07,19,14,30,27.80
2015,07,19,14,31,27.80
2015,07,19,14,32,27.90
2015,07,19,14,33,27.90
2015,07,19,14,34,27.90
2015,07,19,14,35,27.90
2015,07,19,14,36,27.80
2015,07,19,14,37,27.80
2015,07,19,14,38,27.90
2015,07,19,14,39,27.90
2015,07,19,14,40,27.90
2015,07,19,14,41,28.00
2015,07,19,14,42,28.00
2015,07,19,14,43,28.00
2015,07,19,14,44,27.90
2015,07,19,14,45,27.90
2015,07,19,14,46,27.90
2015,07,19,14,47,28.00
2015,07,19,14,48,28.00
2015,07,19,14,49,28.10
2015,07,19,14,50,28.00
2015,07,19,14,51,28.00
2015,07,19,14,52,27.90
2015,07,19,14,53,27.90
2015,07,19,14,54,27.90
2015,07,19,14,55,28.00
2015,07,19,14,56,28.10
2015,07,19,14,57,28.10
2015,07,19,14,58,28.20
2015,07,19,14,59,28.20
2015,07,19,15,00,28.10
2015,07,19,15,01,28.10
2015,07,19,15,02,28.00
2015,07,19,15,03,28.00
2015,07,19,15,04,28.00
2015,07,19,15,05,28.00
2015,07,19,15,06,28.10
2015,07,19,15,07,28.10
2015,07,19,15,08,28.10
2015,07,19,15,09,28.00
2015,07,19,15,10,27.90
2015,07,19,15,11,27.90
2015,07,19,15,12,27.80
2015,07,19,15,13,27.80
2015,07,19,15,14,27.70
2015,07,19,15,15,27.70
2015,07,19,15,16,27.70
2015,07,19,15,17,27.70
2015,07,19,15,18,27.70
2015,07,19,15,19,27.70
2015,07,19,15,20,27.60
2015,07,19,15,21,27.60
2015,07,19,15,22,27.60
2015,07,19,15,23,27.60
2015,07,19,15,24,27.60
2015,07,19,15,25,27.60
2015,07,19,15,26,27.60
2015,07,19,15,27,27.60
2015,07,19,15,28,27.60
2015,07,19,15,29,27.60
2015,07,19,15,30,27.60
2015,07,19,15,31,27.60
2015,07,19,15,32,27.60
2015,07,19,15,33,27.60
2015,07,19,15,34,27.60
2015,07,19,15,35,27.60
2015,07,19,15,36,27.60
2015,07,19,15,37,27.60
2015,07,19,15,38,27.60
2015,07,19,15,39,27.60
2015,07,19,15,40,27.60
2015,07,19,15,41,27.60
2015,07,19,15,42,27.70
2015,07,19,15,43,27.70
2015,07,19,15,44,27.70
2015,07,19,15,45,27.60
2015,07,19,15,46,27.50
2015,07,19,15,47,27.40
2015,07,19,15,48,27.40
2015,07,19,15,49,27.30
2015,07,19,15,50,27.30
2015,07,19,15,51,27.40
2015,07,19,15,52,27.40
2015,07,19,15,53,27.40
2015,07,19,15,54,27.50
2015,07,19,15,55,27.50
2015,07,19,15,56,27.50
2015,07,19,15,57,27.50
2015,07,19,15,58,27.50
2015,07,19,15,59,27.40
2015,07,19,16,00,27.30
2015,07,19,16,01,27.30
2015,07,19,16,02,27.20
2015,07,19,16,03,27.10
2015,07,19,16,04,27.10
2015,07,19,16,05,27.20
2015,07,19,16,06,27.20
2015,07,19,16,07,27.30
2015,07,19,16,08,27.30
2015,07,19,16,09,27.30
2015,07,19,16,10,27.20
2015,07,19,16,11,27.20
2015,07,19,16,12,27.30
2015,07,19,16,13,27.30
2015,07,19,16,14,27.30
2015,07,19,16,15,27.40
2015,07,19,16,16,27.40
2015,07,19,16,17,27.30
2015,07,19,16,18,27.30
2015,07,19,16,19,27.20
2015,07,19,16,20,27.10
2015,07,19,16,21,27.00
2015,07,19,16,22,27.00
2015,07,19,16,23,27.00
2015,07,19,16,24,27.00
2015,07,19,16,25,26.90
2015,07,19,16,26,26.80
2015,07,19,16,27,26.80
2015,07,19,16,28,26.70
2015,07,19,16,29,26.70
2015,07,19,16,30,26.70
2015,07,19,16,31,26.60
2015,07,19,16,32,26.60
2015,07,19,16,33,26.50
2015,07,19,16,34,26.40
2015,07,19,16,35,26.40
2015,07,19,16,36,26.40
2015,07,19,16,37,26.40
2015,07,19,16,38,26.40
2015,07,19,16,39,26.40
2015,07,19,16,40,26.40
2015,07,19,16,41,26.40
2015,07,19,16,42,26.40
2015,07,19,16,43,26.20
2015,07,19,16,44,26.00
2015,07,19,16,45,25.90
2015,07,19,16,46,25.80
2015,07,19,16,47,25.80
2015,07,19,16,48,25.80
2015,07,19,16,49,25.70
2015,07,19,16,50,25.60
2015,07,19,16,51,25.50
2015,07,19,16,52,25.40
2015,07,19,16,53,25.40
2015,07,19,16,54,25.30
2015,07,19,16,55,25.40
2015,07,19,16,56,25.40
2015,07,19,16,57,25.40
2015,07,19,16,58,25.40
2015,07,19,16,59,25.30
2015,07,19,17,00,25.40
2015,07,19,17,01,25.50
2015,07,19,17,02,25.60
2015,07,19,17,03,25.70
2015,07,19,17,04,25.70
2015,07,19,17,05,25.70
2015,07,19,17,06,25.60
2015,07,19,17,07,25.60
2015,07,19,17,08,25.60
2015,07,19,17,09,25.70
2015,07,19,17,10,25.70
2015,07,19,17,11,25.80
2015,07,19,17,12,25.80
2015,07,19,17,13,25.90
2015,07,19,17,14,25.90
2015,07,19,17,15,25.90
2015,07,19,17,16,26.00
2015,07,19,17,17,26.00
2015,07,19,17,18,26.10
2015,07,19,17,19,26.10